CZ-3C DEB, 40864

Orbit data source: Space-Track

CZ-3C DEB, 40864 is space debris in HEO originally from a launch on Fri, 24 Feb 2012 UTC launched from the Xichang Space Center, China (XSC). Debris objects in space refer to the collection of defunct objects orbiting the Earth. Examples of debris include non-operational satellites, rocket bodies, and fragments generated from explosions, collisions, or faulty payload assembly.

Loading next visibility...
Identifier
40864, 2012-008AE
Orbit
HEO
Country
Flag of CNCN / PRC
Related business
Manufacturer
CALT
Mission
Spacecraft
Bus & Motor
Unknown
Mass
Unknown
Launch date (UTC)
2012-02-24 (14 years ago)
Launch vehicle
Unknown
Launch site
Xichang Space Center, China (XSC)
Object type
Payload
Rocket body
Debris
Shape & HBR
Unknown shape, 0.1 m
Radar Cross Section
Medium (>0.1 m² and <1 m²)

Expand to show TLE details & history
Last TLE update: 3 weeks ago

TLE from 3 weeks ago
0 CZ-3C DEB
1 40864U 12008AE  26187.73639387 -.00000156  00000-0 -13955-2 0  9992
2 40864  20.1214  26.4994 7088779 214.4874  67.2044  2.25658725   683
Epoch: 2026-07-06T17:40Z
TLE epoch observation values (Epoch: 2026-07-06T17:40:24.430Z)
Latitude
-0.00003°
Longitude
-163.29404°
Altitude
22,985.545 km
Speed
3.304 km/s
True Right ascension
01h 46m 05s
True Declination
0° 00' 00"
Sunlit
Object was in daylight at epoch
Visualization orbit readout
Latitude
Unknown
Longitude
Unknown
Altitude
Unknown
Speed
Unknown
Apparent Right ascension
Unknown
Apparent Declination
Unknown
Sunlit
N/A
Visualization observer readout
Local Sidereal Time
22:22:47
Azimuth
Unknown
Elevation
Unknown
Doppler factor
Unknown
Orbital elements
Apogee altitude
35,586.753 km
Perigee altitude
770.944 km
Semi-major axis
24,556.986 km
Eccentricity
0.70888
Inclination
20.1214°
RAAN
26.4994°
Arg. of periapsis
214.4874°
True anomaly
145.56745°
Mean anomaly
67.2044°
Eccentric anomaly
106.20619°
Mean motion
0.564 °/min
Orbital period
638.3 mins
BSTAR
-0.0013955
Loading maneuver chart data...
Computing Atmospheric mass density...
Loading historical data...
Loading historical data...
Loading historical data...
Loading historical data...
Loading historical data...
Loading historical data...
Loading historical data...

Documentation

Showing up to 5 results
|